Temperature
23 23 22 22 22 21 21 21 20 20 20 19 19 19 19 19 19 18 18 18 18 18 18 18 18 18 18 18 18 18 18 18 17 17 17 17 17 17 17 17 16 16 16
23 23 22 22 22 22 21 21 20 20 20 20 19 19 19 19 19 18 18 18 18 18 18 18 18 18 18 18 18 18 18 17 17 18 17 17 17 16 16 16 16 16 16
23 23 22 22 22 22 21 21 21 20 20 20 19 19 19 19 19 18 18 18 18 18 19 18 18 18 18 18 18 18 18 18 17 17 17 17 17 16 16 16 16 16 16
23 23 23 22 22 22 22 21 21 21 20 20 20 19 19 19 19 19 18 18 19 19 19 18 18 18 18 18 18 18 18 18 18 17 17 17 17 17 16 16 16 16 16
24 23 23 23 23 22 22 21 21 21 20 20 20 19 19 19 19 19 19 18 19 18 18 18 18 18 18 18 18 18 18 18 18 18 18 17 17 17 16 16 16 16 15
24 23 23 23 23 22 22 21 21 21 20 20 20 19 19 19 19 19 19 19 19 18 18 18 18 18 18 18 18 18 18 18 18 18 17 17 17 17 17 16 16 15 15
24 24 23 23 23 22 22 22 21 21 21 20 20 20 20 19 19 19 19 19 19 19 19 18 18 18 18 18 18 18 18 18 18 17 17 17 17 17 17 17 16 15 15
24 24 23 23 23 23 22 22 22 21 21 21 20 20 20 20 19 19 19 19 19 19 19 18 18 18 18 18 18 18 18 18 17 17 17 17 17 17 17 17 16 15 15
24 24 24 23 23 23 23 22 22 21 21 21 20 20 20 20 20 19 19 19 19 19 19 18 18 18 18 18 18 18 18 18 17 17 17 17 17 17 17 17 17 16 16
24 24 24 24 23 23 23 22 22 22 22 21 21 20 20 20 20 20 19 19 19 19 19 18 18 18 18 18 18 18 18 17 17 17 17 17 17 17 17 17 16 16 16
24 24 24 24 24 23 23 23 22 22 21 21 21 20 20 20 20 20 20 19 19 19 19 18 18 18 18 18 18 17 17 17 17 17 17 17 17 17 17 16 16 16 16
24 24 24 24 23 23 23 23 22 22 22 21 21 21 20 20 20 20 20 19 19 19 19 19 18 18 18 18 18 18 17 17 17 17 17 17 17 17 16 16 16 16 16
24 24 24 23 23 23 23 23 22 22 22 21 21 20 20 20 20 20 20 19 19 19 19 19 18 18 18 18 18 18 17 17 17 17 17 17 17 16 16 16 16 16 16
23 23 23 23 23 23 23 22 22 22 21 21 21 20 20 20 20 20 20 20 19 19 19 19 18 18 18 18 18 18 17 17 17 17 17 17 17 16 16 16 16 16 15
23 23 23 23 23 22 22 22 22 22 21 21 20 20 20 20 20 20 20 19 19 19 19 19 18 18 18 18 18 18 18 17 17 17 17 17 16 16 16 16 16 15 15
23 22 22 22 23 22 22 22 22 21 21 21 21 21 20 20 20 19 19 19 19 19 19 19 18 18 18 18 17 17 17 17 17 17 17 16 16 16 16 15 15 15 15
23 22 22 23 22 22 22 22 21 21 21 21 21 20 20 20 20 19 19 19 19 19 18 18 18 18 18 18 17 17 17 17 17 17 16 16 16 16 16 15 15 15 15
23 23 22 22 22 22 22 22 21 21 21 21 20 20 20 19 19 19 19 19 18 18 18 18 18 18 17 17 17 17 17 16 16 16 16 16 16 15 15 15 15 15 15
23 23 23 22 22 22 22 21 21 21 20 20 20 20 20 20 19 19 19 18 18 18 18 18 18 17 17 17 17 17 16 16 16 16 16 16 15 15 15 15 15 15 14
22 22 22 22 22 21 21 21 21 21 20 20 20 20 20 19 19 19 19 18 18 18 18 17 17 17 17 17 17 16 16 16 16 16 15 15 15 15 15 14 14 14 14
22 22 21 21 21 21 21 21 20 20 20 20 20 19 19 19 19 18 18 18 18 17 17 17 17 17 17 17 17 16 16 16 16 16 15 15 15 15 14 14 14 14 14
21 21 21 21 20 20 20 20 20 20 20 19 19 19 19 18 18 18 18 18 17 17 17 17 17 16 16 16 16 16 16 16 16 15 15 15 15 14 14 14 14 14 13
21 21 20 20 20 20 20 20 20 19 19 19 19 18 18 18 18 17 17 17 17 17 17 16 16 16 16 16 16 16 15 15 15 15 15 15 15 14 14 14 14 13 13
20 20 20 20 19 19 19 19 19 18 18 18 18 18 18 18 17 17 17 17 17 16 16 16 16 16 16 16 16 15 15 15 15 15 15 14 14 14 14 13 13 13 13
19 19 19 19 19 18 18 18 18 18 18 18 18 17 17 17 17 17 16 16 16 16 16 16 16 16 16 16 15 15 15 15 14 14 14 14 14 14 13 13 13 13 13
19 19 19 18 18 18 18 18 18 18 18 17 17 17 16 16 16 16 16 16 16 16 16 15 15 15 15 15 15 15 14 14 14 14 14 14 13 13 13 13 13 13 12
Wind_Speed
10 10 11 11 11 9 9 8 8 6 5 4 3 3 2 2 2 2 4 5 4 4 3 3 3 3 3 3 3 4 4 3 3 4 4 4 3 2 2 2 3 4 5
10 10 10 11 10 10 9 8 8 8 6 5 4 3 3 2 2 2 3 5 5 5 4 3 3 3 3 3 3 4 3 2 2 3 3 2 3 3 2 2 2 2 3
15 13 12 11 11 10 10 10 9 8 7 6 4 3 3 2 2 1 1 2 4 4 3 4 3 3 3 3 3 4 4 3 1 2 3 3 2 0 2 1 1 2 2
13 13 13 12 12 11 9 9 9 8 7 7 6 5 4 3 3 2 2 1 3 3 4 4 3 3 3 3 3 3 3 4 2 1 1 2 4 3 1 2 1 1 2
15 15 14 13 12 11 10 9 8 8 7 7 7 5 4 3 2 2 2 1 1 2 3 4 3 3 2 2 2 2 2 2 3 2 1 1 2 2 3 2 1 1 0
13 13 12 11 10 10 10 9 8 7 7 7 7 7 6 5 5 4 3 2 1 1 1 3 3 2 2 2 2 2 3 2 2 2 2 2 2 2 3 3 2 1 1
13 13 13 13 12 12 10 9 9 8 8 8 7 7 7 7 6 5 4 4 2 1 1 2 2 2 2 2 2 2 2 2 2 2 2 2 3 3 3 3 2 2 1
12 14 15 14 13 13 12 11 10 8 8 8 7 6 6 5 4 5 4 4 3 3 2 2 3 2 2 2 2 2 2 2 2 2 2 2 2 3 3 4 4 2 0
13 14 14 13 13 14 13 12 11 8 8 8 7 6 6 6 5 5 4 4 3 3 3 2 3 2 2 2 2 2 2 2 2 2 2 2 2 2 3 4 5 5 3
11 12 13 13 12 12 11 11 10 10 8 8 7 7 6 5 6 5 5 4 4 3 3 3 2 2 2 2 2 2 1 1 1 1 1 1 1 2 2 3 3 3 4
12 11 11 11 11 11 11 11 10 8 8 8 7 6 6 6 6 5 5 5 4 4 4 3 3 2 2 2 2 2 2 1 0 0 1 1 2 2 2 2 2 2 3
10 10 10 9 11 11 11 11 11 10 9 7 7 6 6 6 6 6 5 5 5 4 4 3 3 2 2 2 2 2 2 2 1 1 1 1 2 2 2 2 2 2 2
8 8 9 9 10 11 11 10 10 10 8 8 7 6 6 6 6 6 5 5 5 4 4 4 4 3 2 2 2 3 2 2 2 2 2 2 3 2 2 2 2 2 2
8 9 9 9 9 10 10 10 10 9 9 8 8 7 7 7 7 6 5 5 5 5 4 4 4 3 3 3 3 3 3 2 2 2 2 2 3 3 3 3 3 3 3
7 7 8 8 8 8 8 9 9 9 10 9 9 8 6 5 5 5 5 5 5 5 5 4 3 3 3 3 3 3 3 3 2 1 1 1 3 4 4 4 3 4 3
7 7 7 8 8 9 9 8 9 9 9 9 9 8 7 7 6 6 5 5 4 4 4 4 4 3 3 4 6 5 3 3 3 2 1 1 2 3 4 5 6 7 6
6 7 7 8 9 9 10 10 9 9 9 9 8 8 7 7 7 7 6 6 5 4 4 4 4 3 3 5 6 6 4 3 3 3 2 1 1 2 2 3 3 4 6
6 5 6 6 7 7 8 9 9 9 9 8 8 7 7 7 6 6 6 5 4 4 4 4 4 3 4 5 6 6 4 3 3 3 3 3 2 3 4 3 2 2 3
6 5 6 6 6 7 8 9 8 8 8 8 8 7 8 7 6 6 6 5 5 4 4 3 4 4 4 5 5 5 3 2 3 3 3 4 4 5 6 4 3 2 3
5 5 5 6 6 6 7 9 8 7 7 8 8 7 7 7 7 7 6 4 4 4 4 4 4 4 3 4 5 5 3 3 2 2 2 4 5 6 6 5 4 4 4
6 7 7 6 5 6 8 8 7 6 6 6 6 6 6 6 6 5 4 4 4 3 3 3 3 3 4 4 5 6 4 4 3 3 3 3 5 6 6 6 5 6 4
6 7 7 5 4 6 8 7 6 5 5 6 5 5 5 5 5 5 5 4 4 4 3 2 2 1 2 3 4 6 6 5 4 4 4 3 5 5 5 4 5 5 3
6 6 7 5 4 4 6 7 4 5 6 6 5 4 4 3 4 5 5 4 4 4 3 3 3 2 1 2 4 5 6 6 4 3 4 3 4 4 4 5 5 4 3
6 6 7 6 4 3 4 5 5 5 6 6 5 4 4 4 3 3 4 4 4 4 4 4 4 3 2 2 2 2 3 3 3 2 2 3 3 2 3 3 3 3 4
5 5 6 6 5 4 4 4 5 6 6 5 4 4 4 4 3 3 3 4 4 6 6 5 5 4 4 6 7 5 4 4 4 2 1 1 1 2 2 2 3 3 3
5 6 5 5 5 5 4 3 4 5 6 5 4 3 3 3 3 3 1 2 1 3 6 7 6 5 6 6 7 8 7 6 6 4 2 3 3 4 4 4 4 4 4
Wind_Direction
176 169 164 159 153 149 151 154 153 157 145 132 131 130 141 142 137 148 149 150 148 141 137 136 135 137 133 135 128 123 112 107 115 97 69 46 49 73 103 117 124 130 137
170 169 167 163 163 163 162 160 161 163 162 158 155 157 155 159 160 152 147 160 159 159 152 146 148 138 133 129 125 124 123 129 134 122 108 63 19 18 47 82 120 126 118
176 175 173 170 167 170 172 170 169 168 168 160 140 122 97 80 92 127 160 172 162 156 149 148 143 139 143 153 153 143 138 153 186 156 142 149 190 281 3 32 95 122 129
179 178 176 173 175 177 176 172 170 169 171 161 151 150 153 158 181 173 174 164 154 157 152 144 144 142 142 151 165 153 152 151 181 228 155 150 150 151 149 349 358 112 135
181 179 179 176 174 172 173 176 170 172 173 165 158 155 153 164 160 144 148 154 137 145 144 144 142 139 143 155 147 139 147 157 167 180 149 103 92 122 146 183 266 357 303
177 175 173 166 166 167 167 169 166 175 173 164 161 161 162 159 151 156 161 171 169 123 135 145 143 144 146 159 166 160 154 158 159 162 154 157 155 171 156 172 186 197 264
177 173 171 169 169 168 170 170 169 175 175 168 171 172 171 166 167 171 171 169 166 176 194 169 161 161 171 173 169 161 173 172 168 174 179 181 184 166 153 148 160 171 221
177 175 176 175 174 174 172 171 172 175 176 174 178 176 174 170 173 176 171 171 177 190 186 173 168 165 166 171 158 157 187 176 183 192 185 186 197 167 160 159 154 149 204
176 177 176 177 176 175 174 172 173 175 181 183 178 177 176 174 175 177 169 169 178 183 177 169 167 169 166 165 153 150 176 165 186 198 195 197 201 177 170 164 162 159 177
173 175 177 179 176 175 172 169 172 178 181 182 183 184 179 175 171 166 170 175 182 181 164 161 163 164 161 151 141 153 158 137 196 188 169 185 184 174 171 171 172 163 164
174 174 174 176 171 167 168 171 175 176 180 184 182 175 174 173 167 170 176 176 170 167 169 167 159 150 146 144 138 151 151 146 167 131 140 166 162 165 172 164 157 149 145
168 165 167 169 170 171 170 173 176 178 182 181 176 177 172 166 170 177 177 169 166 168 171 162 157 159 154 148 150 159 146 146 157 156 131 156 140 144 156 146 154 164 154
154 155 160 166 172 174 174 175 175 178 177 170 170 171 171 169 177 183 176 167 166 168 164 156 162 169 163 156 164 156 148 151 158 152 152 157 128 140 147 149 155 161 148
157 161 163 167 172 174 173 174 174 175 174 169 172 172 180 180 181 179 175 173 168 167 166 167 174 176 172 173 173 154 141 134 133 140 151 161 157 168 165 156 157 148 132
152 162 167 167 166 167 168 170 171 170 171 168 171 179 182 179 178 175 173 171 167 174 172 170 180 184 179 191 176 162 153 146 136 122 138 160 161 163 164 153 155 147 144
162 165 169 166 169 168 169 167 167 167 161 166 177 181 176 173 177 181 173 167 171 172 166 174 185 194 205 191 179 171 166 165 163 174 204 201 154 162 162 160 160 160 161
164 171 174 173 174 174 169 168 168 163 163 169 176 181 179 181 187 185 174 174 178 175 175 184 179 190 206 188 180 177 166 168 179 186 193 210 199 172 166 173 167 186 191
156 172 175 173 172 166 164 165 162 162 166 170 177 178 177 181 180 171 172 178 178 180 187 192 187 195 217 198 185 178 168 173 188 192 193 195 215 201 179 171 171 211 225
161 163 163 150 146 153 157 153 157 163 168 175 179 180 173 171 172 173 177 179 176 185 189 183 184 195 217 198 186 171 162 178 204 209 200 191 203 216 191 176 192 230 266
138 134 125 119 131 147 144 145 153 160 175 180 180 178 172 170 175 180 180 174 171 185 183 187 190 191 200 190 179 172 173 191 217 241 237 215 210 209 195 188 190 217 244
124 120 117 119 133 139 137 139 148 165 174 167 165 165 167 174 175 173 173 165 168 173 182 183 190 192 198 196 186 178 179 197 205 222 239 244 222 213 208 200 205 219 222
116 117 117 116 123 132 136 139 155 168 150 143 145 156 164 170 166 163 170 168 167 172 182 174 189 218 205 194 207 194 197 198 197 218 227 232 226 226 221 214 226 221 201
123 121 122 116 112 124 136 143 160 145 137 135 144 149 150 152 153 162 173 175 178 185 196 188 198 219 228 227 224 209 207 207 206 225 219 223 228 227 231 234 226 209 198
130 125 124 125 128 128 128 142 145 139 132 140 149 149 145 146 149 157 169 180 191 192 193 195 204 210 214 224 220 221 219 214 220 242 251 252 243 237 246 242 231 217 209
123 125 131 139 144 136 122 132 142 139 136 145 154 155 156 156 155 155 173 190 206 201 196 204 198 197 222 231 209 198 207 208 207 180 183 244 247 246 252 250 244 230 218
120 123 127 134 136 131 127 132 143 146 143 149 158 160 153 151 153 148 104 14 252 220 208 203 199 216 221 214 205 208 209 199 171 157 204 226 229 231 233 235 240 234 230
Height
1520 1521 1523 1524 1526 1527 1529 1530 1532 1533 1534 1534 1535 1536 1537 1537 1538 1539 1540 1540 1540 1541 1541 1541 1542 1542 1543 1543 1543 1544 1544 1545 1546 1546 1547 1548 1548 1548 1549 1549 1549 1549 1549
1518 1520 1522 1523 1525 1526 1528 1530 1531 1532 1533 1534 1535 1536 1537 1538 1538 1539 1540 1540 1541 1541 1541 1541 1542 1542 1543 1543 1544 1544 1544 1545 1546 1546 1546 1548 1550 1549 1549 1549 1549 1549 1548
1514 1517 1520 1522 1523 1525 1527 1528 1530 1531 1533 1534 1535 1536 1537 1538 1539 1539 1540 1540 1541 1541 1541 1541 1542 1542 1543 1543 1544 1544 1545 1545 1546 1546 1547 1547 1547 1548 1549 1548 1549 1548 1548
1512 1514 1517 1519 1521 1524 1526 1528 1530 1531 1532 1533 1535 1536 1536 1537 1538 1539 1540 1540 1540 1540 1541 1541 1541 1542 1542 1543 1543 1544 1544 1545 1545 1545 1546 1546 1546 1547 1548 1548 1548 1548 1548
1509 1512 1514 1517 1520 1522 1524 1527 1529 1530 1531 1533 1534 1535 1536 1537 1538 1538 1539 1540 1540 1540 1540 1541 1541 1542 1542 1543 1543 1543 1544 1544 1544 1545 1545 1545 1545 1545 1546 1546 1547 1547 1547
1507 1510 1513 1516 1519 1521 1523 1526 1528 1529 1531 1532 1533 1534 1535 1536 1537 1538 1538 1538 1539 1540 1540 1541 1541 1541 1542 1542 1543 1543 1543 1543 1544 1544 1544 1544 1544 1544 1544 1544 1545 1545 1546
1504 1507 1511 1514 1516 1519 1522 1524 1526 1528 1529 1531 1533 1534 1535 1536 1536 1537 1537 1538 1538 1539 1540 1540 1540 1541 1541 1542 1542 1542 1542 1542 1543 1543 1543 1543 1543 1543 1543 1543 1543 1544 1544
1502 1504 1507 1511 1514 1516 1519 1522 1524 1526 1528 1529 1531 1533 1534 1535 1536 1537 1537 1538 1538 1539 1539 1540 1540 1540 1541 1541 1541 1541 1541 1541 1541 1541 1541 1541 1541 1541 1541 1541 1542 1542 1543
1500 1503 1505 1508 1511 1514 1517 1519 1522 1525 1527 1528 1530 1532 1533 1534 1535 1536 1537 1537 1538 1538 1539 1539 1539 1540 1540 1540 1540 1540 1540 1540 1540 1540 1539 1539 1539 1539 1539 1540 1540 1541 1540
1497 1500 1503 1506 1509 1512 1515 1518 1521 1523 1525 1527 1529 1530 1532 1533 1534 1535 1536 1536 1537 1538 1538 1538 1539 1539 1539 1539 1539 1539 1539 1539 1538 1538 1538 1537 1537 1537 1538 1538 1539 1539 1539
1494 1497 1501 1504 1507 1511 1513 1516 1519 1522 1524 1526 1527 1529 1530 1531 1533 1534 1534 1535 1536 1537 1538 1538 1538 1538 1538 1538 1538 1538 1538 1538 1537 1537 1536 1536 1536 1536 1536 1536 1537 1537 1537
1491 1495 1499 1502 1505 1508 1511 1514 1517 1520 1522 1524 1526 1527 1529 1530 1531 1532 1533 1534 1535 1536 1537 1537 1537 1537 1537 1537 1537 1537 1537 1536 1536 1536 1535 1535 1534 1534 1534 1535 1535 1535 1536
1491 1494 1497 1500 1502 1505 1508 1511 1515 1518 1520 1522 1524 1526 1527 1528 1529 1530 1531 1532 1533 1534 1535 1535 1536 1536 1536 1536 1536 1536 1535 1535 1535 1535 1534 1534 1533 1533 1533 1533 1533 1534 1534
1489 1492 1495 1497 1500 1502 1505 1508 1511 1515 1518 1520 1522 1523 1525 1526 1527 1529 1530 1530 1531 1532 1533 1534 1534 1534 1535 1535 1535 1534 1534 1534 1534 1533 1533 1533 1532 1532 1531 1531 1532 1532 1533
1489 1491 1493 1495 1498 1500 1503 1506 1509 1512 1515 1517 1519 1521 1523 1524 1525 1526 1528 1529 1529 1530 1531 1532 1532 1533 1533 1533 1533 1533 1533 1532 1532 1532 1532 1532 1531 1531 1531 1530 1531 1531 1531
1487 1490 1493 1494 1496 1498 1501 1504 1507 1509 1512 1515 1517 1518 1520 1521 1522 1524 1525 1526 1527 1528 1529 1529 1530 1531 1531 1531 1532 1532 1532 1531 1531 1531 1531 1530 1530 1530 1529 1529 1529 1529 1529
1484 1487 1490 1492 1494 1496 1499 1502 1504 1507 1509 1512 1513 1515 1517 1518 1519 1521 1522 1523 1524 1526 1526 1527 1528 1528 1529 1529 1530 1530 1530 1530 1530 1529 1529 1529 1528 1528 1528 1528 1527 1527 1527
1482 1485 1487 1490 1492 1494 1497 1500 1502 1504 1506 1508 1510 1512 1513 1515 1515 1517 1519 1520 1522 1523 1524 1525 1526 1526 1527 1527 1528 1528 1528 1528 1527 1528 1527 1527 1526 1526 1526 1526 1525 1525 1525
1481 1483 1485 1487 1490 1493 1495 1497 1499 1501 1503 1505 1508 1509 1511 1512 1513 1515 1516 1517 1519 1520 1521 1522 1523 1523 1524 1524 1525 1525 1525 1525 1525 1525 1525 1525 1524 1524 1524 1523 1523 1522 1522
1480 1482 1484 1486 1488 1491 1493 1495 1497 1498 1500 1502 1505 1507 1508 1510 1511 1512 1514 1515 1516 1517 1518 1519 1519 1520 1521 1521 1522 1522 1522 1522 1522 1522 1522 1522 1521 1521 1521 1520 1520 1519 1519
1479 1481 1483 1485 1487 1489 1491 1493 1495 1496 1498 1500 1503 1504 1506 1507 1509 1510 1511 1512 1513 1514 1514 1515 1516 1517 1518 1518 1519 1519 1519 1519 1519 1519 1519 1519 1518 1518 1518 1518 1517 1517 1517
1477 1479 1481 1484 1486 1488 1489 1491 1492 1494 1497 1498 1500 1502 1503 1505 1506 1507 1509 1510 1510 1511 1512 1512 1513 1514 1515 1515 1516 1516 1516 1516 1516 1515 1515 1516 1515 1515 1515 1514 1514 1514 1513
1476 1478 1480 1482 1485 1486 1488 1489 1491 1493 1494 1496 1497 1499 1501 1502 1503 1504 1505 1506 1507 1508 1509 1509 1510 1510 1511 1512 1512 1512 1512 1513 1512 1512 1512 1512 1512 1512 1511 1511 1510 1510 1509
1474 1476 1479 1480 1482 1485 1487 1488 1490 1491 1492 1493 1495 1496 1497 1498 1500 1501 1502 1503 1504 1505 1505 1506 1506 1507 1507 1507 1508 1508 1508 1509 1509 1509 1509 1509 1508 1508 1507 1507 1506 1506 1505
1473 1476 1477 1479 1481 1482 1484 1486 1488 1489 1490 1491 1492 1493 1494 1496 1497 1498 1499 1500 1501 1502 1502 1502 1503 1503 1503 1504 1504 1505 1505 1504 1504 1505 1504 1504 1504 1503 1503 1503 1502 1502 1501
1472 1474 1476 1478 1479 1481 1482 1484 1486 1487 1487 1489 1490 1491 1492 1493 1494 1495 1496 1497 1498 1499 1499 1500 1500 1500 1501 1501 1501 1501 1501 1501 1501 1501 1500 1500 1499 1499 1498 1498 1498 1497 1497